| time (UTC) | temp C | wind direction | speed KPH | gust KPH | rain 1hr cm | rain 24hr cm | rain mn cm | humidity % | barometer mb |
| 20260506153505 | 17 | 344 | 11.3 | 22.5 | 0.00 | 0.00 | 0.00 | 90 | 1012.4 |
| 20260506153018 | 17 | 345 | 9.7 | 19.3 | 0.00 | 0.00 | 0.00 | 89 | 1012.3 |
| 20260506152509 | 18 | 307 | 6.4 | 25.7 | 0.00 | 0.00 | 0.00 | 89 | 1012.1 |
| 20260506151506 | 19 | 26 | 14.5 | 25.7 | 0.00 | 0.00 | 0.00 | 86 | 1011.8 |
| 20260506151007 | 20 | 306 | 8.0 | 20.9 | 0.00 | 0.00 | 0.00 | 84 | 1011.8 |
| 20260506150504 | 21 | 5 | 11.3 | 20.9 | 0.00 | 0.00 | 0.00 | 82 | 1011.5 |
| 20260506150012 | 23 | 344 | 6.4 | 17.7 | 0.00 | 0.00 | 0.00 | 80 | 1011.3 |
| 20260506145512 | 25 | 150 | 1.6 | 8.0 | 0.00 | 0.00 | 0.00 | 86 | 1011.1 |
| 20260506145006 | 25 | 203 | 3.2 | 8.0 | 0.00 | 0.00 | 0.00 | 86 | 1011.0 |
| 20260506144512 | 25 | 150 | 3.2 | 8.0 | 0.00 | 0.00 | 0.00 | 86 | 1010.8 |
| 20260506144008 | 25 | 176 | 6.4 | 8.0 | 0.00 | 0.00 | 0.00 | 86 | 1010.6 |
| 20260506143509 | 25 | 154 | 1.6 | 11.3 | 0.00 | 0.00 | 0.00 | 87 | 1010.7 |
| 20260506143007 | 25 | 165 | 4.8 | 11.3 | 0.00 | 0.00 | 0.00 | 86 | 1010.7 |
| 20260506142508 | 25 | 188 | 3.2 | 9.7 | 0.00 | 0.00 | 0.00 | 87 | 1010.6 |
| 20260506142009 | 25 | 167 | 3.2 | 9.7 | 0.00 | 0.00 | 0.00 | 87 | 1010.8 |
| 20260506141524 | 25 | 167 | 3.2 | 9.7 | 0.00 | 0.00 | 0.00 | 87 | 1010.8 |
| 20260506140504 | 25 | 173 | 4.8 | 9.7 | 0.00 | 0.00 | 0.00 | 88 | 1010.3 |
| 20260506140008 | 24 | 205 | 4.8 | 8.0 | 0.00 | 0.00 | 0.00 | 88 | 1010.2 |
| 20260506135504 | 24 | 151 | 4.8 | 8.0 | 0.00 | 0.00 | 0.00 | 88 | 1010.2 |
| 20260506135006 | 24 | 134 | 4.8 | 9.7 | 0.00 | 0.00 | 0.00 | 88 | 1010.2 |
| 20260506134514 | 24 | 141 | 4.8 | 9.7 | 0.00 | 0.00 | 0.00 | 88 | 1010.2 |
| 20260506134009 | 24 | 131 | 1.6 | 8.0 | 0.00 | 0.00 | 0.00 | 89 | 1010.1 |
| 20260506133506 | 24 | 126 | 4.8 | 8.0 | 0.00 | 0.00 | 0.00 | 89 | 1010.0 |
| 20260506133029 | 24 | 149 | 3.2 | 6.4 | 0.00 | 0.00 | 0.00 | 90 | 1010.1 |
| 20260506132509 | 23 | 167 | 3.2 | 6.4 | 0.00 | 0.00 | 0.00 | 90 | 1010.1 |
| 20260506132008 | 23 | 175 | 1.6 | 4.8 | 0.00 | 0.00 | 0.00 | 91 | 1010.1 |
| 20260506131517 | 23 | 173 | 1.6 | 6.4 | 0.00 | 0.00 | 0.00 | 91 | 1010.0 |
| 20260506131007 | 23 | 167 | 1.6 | 6.4 | 0.00 | 0.00 | 0.00 | 91 | 1009.9 |
| 20260506130508 | 23 | 162 | 3.2 | 8.0 | 0.00 | 0.00 | 0.00 | 92 | 1009.9 |
| 20260506125505 | 23 | 173 | 3.2 | 6.4 | 0.00 | 0.00 | 0.00 | 1009.7 | |
| 20260506125003 | 23 | 146 | 3.2 | 6.4 | 0.00 | 0.00 | 0.00 | 1009.8 | |
| 20260506124007 | 23 | 145 | 1.6 | 4.8 | 0.00 | 0.00 | 0.00 | 1009.8 | |
| 20260506123507 | 23 | 146 | 1.6 | 3.2 | 0.00 | 0.00 | 0.00 | 1009.8 | |
| 20260506123016 | 23 | 135 | 0.0 | 3.2 | 0.00 | 0.00 | 0.00 | 92 | 1009.8 |
| 20260506122508 | 23 | 131 | 0.0 | 3.2 | 0.00 | 0.00 | 0.00 | 92 | 1009.7 |
| 20260506122006 | 23 | 136 | 1.6 | 3.2 | 0.00 | 0.00 | 0.00 | 92 | 1009.6 |
| 20260506121520 | 23 | 142 | 1.6 | 3.2 | 0.00 | 0.00 | 0.00 | 92 | 1009.6 |
| 20260506121014 | 23 | 134 | 0.0 | 4.8 | 0.00 | 0.00 | 0.00 | 92 | 1009.6 |
| 20260506120508 | 23 | 128 | 1.6 | 4.8 | 0.00 | 0.00 | 0.00 | 92 | 1009.7 |
| 20260506120033 | 23 | 142 | 1.6 | 4.8 | 0.00 | 0.00 | 0.00 | 92 | 1009.6 |
| 20260506115509 | 23 | 136 | 1.6 | 3.2 | 0.00 | 0.00 | 0.00 | 92 | 1009.6 |
| 20260506114003 | 23 | 157 | 1.6 | 4.8 | 0.00 | 0.00 | 0.00 | 92 | 1009.5 |
| 20260506113508 | 23 | 143 | 1.6 | 4.8 | 0.00 | 0.00 | 0.00 | 92 | 1009.5 |
| 20260506112507 | 23 | 174 | 0.0 | 3.2 | 0.00 | 0.00 | 0.00 | 91 | 1009.6 |
| 20260506112006 | 23 | 186 | 1.6 | 6.4 | 0.00 | 0.00 | 0.00 | 91 | 1009.5 |
| 20260506111510 | 23 | 184 | 1.6 | 8.0 | 0.00 | 0.00 | 0.00 | 91 | 1009.4 |
| 20260506111010 | 23 | 197 | 3.2 | 8.0 | 0.00 | 0.00 | 0.00 | 91 | 1009.4 |
| 20260506110513 | 23 | 203 | 3.2 | 8.0 | 0.00 | 0.00 | 0.00 | 91 | 1009.4 |
| 20260506110020 | 23 | 169 | 3.2 | 8.0 | 0.00 | 0.00 | 0.00 | 91 | 1009.3 |
| 20260506105508 | 23 | 182 | 1.6 | 8.0 | 0.00 | 0.00 | 0.00 | 91 | 1009.3 |
| 20260506105008 | 23 | 196 | 3.2 | 8.0 | 0.00 | 0.00 | 0.00 | 91 | 1009.2 |
| 20260506104525 | 23 | 157 | 3.2 | 6.4 | 0.00 | 0.00 | 0.00 | 91 | 1009.0 |
| 20260506104007 | 23 | 175 | 1.6 | 6.4 | 0.00 | 0.00 | 0.00 | 91 | 1009.1 |
| 20260506103510 | 23 | 167 | 3.2 | 9.7 | 0.00 | 0.00 | 0.00 | 91 | 1009.1 |
| 20260506103005 | 23 | 186 | 3.2 | 9.7 | 0.00 | 0.00 | 0.00 | 91 | 1008.9 |
| 20260506102507 | 23 | 178 | 3.2 | 8.0 | 0.00 | 0.00 | 0.00 | 91 | 1008.9 |
| 20260506102004 | 23 | 151 | 4.8 | 9.7 | 0.00 | 0.00 | 0.00 | 90 | 1008.9 |
| 20260506101513 | 23 | 166 | 3.2 | 9.7 | 0.00 | 0.00 | 0.00 | 90 | 1008.8 |
| 20260506101005 | 23 | 143 | 3.2 | 9.7 | 0.00 | 0.00 | 0.00 | 90 | 1008.7 |
| 20260506100506 | 23 | 212 | 4.8 | 9.7 | 0.00 | 0.00 | 0.00 | 90 | 1008.7 |
| 20260506100016 | 23 | 191 | 4.8 | 9.7 | 0.00 | 0.00 | 0.00 | 90 | 1008.5 |
| 20260506095507 | 23 | 178 | 4.8 | 8.0 | 0.00 | 0.00 | 0.00 | 90 | 1008.5 |
| 20260506095006 | 23 | 197 | 4.8 | 11.3 | 0.00 | 0.00 | 0.00 | 90 | 1008.5 |
| 20260506094506 | 23 | 182 | 6.4 | 11.3 | 0.00 | 0.00 | 0.00 | 90 | 1008.5 |
| 20260506094004 | 23 | 186 | 6.4 | 12.9 | 0.00 | 0.00 | 0.00 | 90 | 1008.5 |
| 20260506093507 | 23 | 165 | 4.8 | 12.9 | 0.00 | 0.00 | 0.00 | 90 | 1008.5 |
| 20260506093014 | 23 | 156 | 4.8 | 11.3 | 0.00 | 0.00 | 0.00 | 90 | 1008.4 |
| 20260506092509 | 23 | 180 | 6.4 | 14.5 | 0.00 | 0.00 | 0.00 | 90 | 1008.4 |
| 20260506092007 | 23 | 180 | 4.8 | 14.5 | 0.00 | 0.00 | 0.00 | 90 | 1008.3 |
| 20260506091510 | 23 | 169 | 6.4 | 14.5 | 0.00 | 0.00 | 0.00 | 90 | 1008.3 |
| 20260506091007 | 23 | 180 | 6.4 | 11.3 | 0.00 | 0.00 | 0.00 | 90 | 1008.3 |
| 20260506090509 | 23 | 173 | 6.4 | 12.9 | 0.00 | 0.00 | 0.00 | 90 | 1008.4 |
| 20260506090010 | 23 | 203 | 6.4 | 12.9 | 0.00 | 0.00 | 0.00 | 90 | 1008.4 |
| 20260506085507 | 23 | 183 | 8.0 | 17.7 | 0.00 | 0.00 | 0.00 | 90 | 1008.4 |
| 20260506085007 | 23 | 188 | 9.7 | 17.7 | 0.00 | 0.00 | 0.00 | 90 | 1008.5 |
| 20260506083503 | 23 | 171 | 4.8 | 14.5 | 0.00 | 0.00 | 0.00 | 90 | 1008.3 |
| 20260506083010 | 23 | 208 | 8.0 | 14.5 | 0.00 | 0.00 | 0.00 | 90 | 1008.3 |
| 20260506082505 | 23 | 176 | 8.0 | 16.1 | 0.00 | 0.00 | 0.00 | 90 | 1008.3 |
| 20260506082009 | 23 | 187 | 8.0 | 16.1 | 0.00 | 0.00 | 0.00 | 90 | 1008.3 |
| 20260506081512 | 23 | 163 | 8.0 | 20.9 | 0.00 | 0.00 | 0.00 | 90 | 1008.4 |
| 20260506081010 | 23 | 190 | 9.7 | 20.9 | 0.00 | 0.00 | 0.00 | 90 | 1008.3 |
| 20260506073509 | 23 | 193 | 8.0 | 16.1 | 0.00 | 0.00 | 0.00 | 90 | 1008.5 |
| 20260506073013 | 23 | 159 | 4.8 | 22.5 | 0.00 | 0.00 | 0.00 | 90 | 1008.5 |
| 20260506072010 | 23 | 145 | 9.7 | 20.9 | 0.00 | 0.00 | 0.00 | 90 | 1008.3 |
| 20260506071510 | 23 | 165 | 12.9 | 22.5 | 0.00 | 0.00 | 0.00 | 90 | 1008.3 |
| 20260506071006 | 23 | 186 | 11.3 | 24.1 | 0.00 | 0.00 | 0.00 | 90 | 1008.3 |
| 20260506070507 | 23 | 167 | 11.3 | 24.1 | 0.00 | 0.00 | 0.00 | 91 | 1008.4 |
| 20260506062507 | 23 | 189 | 9.7 | 19.3 | 0.00 | 0.00 | 0.00 | 91 | 1008.4 |
| 20260506061516 | 23 | 169 | 8.0 | 19.3 | 0.00 | 0.00 | 0.00 | 91 | 1008.3 |
| 20260506061006 | 23 | 167 | 9.7 | 19.3 | 0.00 | 0.00 | 0.00 | 91 | 1008.5 |
| 20260506060507 | 23 | 137 | 9.7 | 17.7 | 0.00 | 0.00 | 0.00 | 91 | 1008.4 |
| 20260506051006 | 23 | 154 | 9.7 | 17.7 | 0.00 | 0.00 | 0.00 | 1008.5 | |
| 20260506045009 | 23 | 165 | 6.4 | 12.9 | 0.00 | 0.00 | 0.00 | 90 | 1008.7 |
| 20260506044519 | 23 | 167 | 6.4 | 16.1 | 0.00 | 0.00 | 0.00 | 90 | 1008.5 |
| 20260506044007 | 23 | 143 | 8.0 | 16.1 | 0.00 | 0.00 | 0.00 | 89 | 1008.5 |
| 20260506043509 | 23 | 178 | 9.7 | 17.7 | 0.00 | 0.00 | 0.00 | 89 | 1008.5 |
| 20260506043022 | 23 | 153 | 8.0 | 17.7 | 0.00 | 0.00 | 0.00 | 89 | 1008.6 |
| 20260506042507 | 23 | 200 | 8.0 | 16.1 | 0.00 | 0.00 | 0.00 | 89 | 1008.5 |
| 20260506042007 | 23 | 158 | 8.0 | 17.7 | 0.00 | 0.00 | 0.00 | 89 | 1008.3 |
| 20260506041519 | 23 | 151 | 6.4 | 17.7 | 0.00 | 0.00 | 0.00 | 89 | 1008.2 |
| 20260506041010 | 23 | 157 | 9.7 | 16.1 | 0.00 | 0.00 | 0.00 | 88 | 1008.2 |
| 20260506040508 | 23 | 146 | 8.0 | 16.1 | 0.00 | 0.00 | 0.00 | 88 | 1008.2 |
| 20260506040032 | 23 | 166 | 8.0 | 16.1 | 0.00 | 0.00 | 0.00 | 88 | 1008.2 |
| 20260506035506 | 23 | 148 | 11.3 | 16.1 | 0.00 | 0.00 | 0.00 | 88 | 1008.3 |
| 20260506035008 | 23 | 159 | 8.0 | 14.5 | 0.00 | 0.00 | 0.00 | 88 | 1008.2 |
| 20260506034514 | 23 | 157 | 8.0 | 16.1 | 0.00 | 0.00 | 0.00 | 87 | 1008.1 |
| 20260506034007 | 24 | 168 | 9.7 | 17.7 | 0.00 | 0.00 | 0.00 | 87 | 1007.9 |
| 20260506033508 | 24 | 166 | 8.0 | 16.1 | 0.00 | 0.00 | 0.00 | 87 | 1007.9 |
| 20260506033016 | 24 | 140 | 11.3 | 16.1 | 0.00 | 0.00 | 0.00 | 87 | 1007.9 |
| 20260506032506 | 24 | 136 | 9.7 | 16.1 | 0.00 | 0.00 | 0.00 | 87 | 1007.9 |
| 20260506032011 | 24 | 165 | 9.7 | 14.5 | 0.00 | 0.00 | 0.00 | 87 | 1008.0 |
| 20260506031521 | 24 | 170 | 8.0 | 14.5 | 0.00 | 0.00 | 0.00 | 87 | 1008.0 |
| 20260506031008 | 24 | 159 | 6.4 | 14.5 | 0.00 | 0.00 | 0.00 | 87 | 1007.9 |
| 20260506030512 | 24 | 133 | 6.4 | 14.5 | 0.00 | 0.00 | 0.00 | 86 | 1007.7 |
| 20260506030022 | 24 | 155 | 6.4 | 14.5 | 0.00 | 0.00 | 0.00 | 86 | 1007.5 |
| 20260506025506 | 24 | 136 | 8.0 | 19.3 | 0.00 | 0.00 | 0.00 | 86 | 1007.4 |
| 20260506024525 | 25 | 157 | 11.3 | 17.7 | 0.00 | 0.00 | 0.00 | 85 | 1007.2 |
| 20260506024010 | 25 | 163 | 8.0 | 19.3 | 0.00 | 0.00 | 0.00 | 85 | 1007.2 |
| 20260506023508 | 25 | 180 | 9.7 | 19.3 | 0.00 | 0.00 | 0.00 | 85 | 1007.0 |
| 20260506023025 | 25 | 194 | 9.7 | 14.5 | 0.00 | 0.00 | 0.00 | 84 | 1006.8 |
| 20260506022508 | 25 | 159 | 8.0 | 12.9 | 0.00 | 0.00 | 0.00 | 84 | 1006.8 |
| 20260506022012 | 25 | 161 | 6.4 | 17.7 | 0.00 | 0.00 | 0.00 | 83 | 1006.8 |
| 20260506021529 | 25 | 152 | 8.0 | 17.7 | 0.00 | 0.00 | 0.00 | 83 | 1006.8 |
| 20260506021011 | 25 | 161 | 8.0 | 16.1 | 0.00 | 0.00 | 0.00 | 83 | 1006.7 |
| 20260506020507 | 25 | 171 | 9.7 | 16.1 | 0.00 | 0.00 | 0.00 | 83 | 1006.6 |
| 20260506020020 | 25 | 151 | 6.4 | 14.5 | 0.00 | 0.00 | 0.00 | 82 | 1006.6 |
| 20260506015510 | 25 | 136 | 9.7 | 16.1 | 0.00 | 0.00 | 0.00 | 82 | 1006.6 |
| 20260506015014 | 25 | 170 | 8.0 | 17.7 | 0.00 | 0.00 | 0.00 | 82 | 1006.6 |
| 20260506014522 | 25 | 159 | 8.0 | 17.7 | 0.00 | 0.00 | 0.00 | 82 | 1006.6 |
| 20260506013511 | 26 | 177 | 6.4 | 12.9 | 0.00 | 0.00 | 0.00 | 82 | 1006.6 |
| 20260506013006 | 26 | 153 | 4.8 | 12.9 | 0.00 | 0.00 | 0.00 | 82 | 1006.6 |
| 20260506012505 | 26 | 153 | 4.8 | 9.7 | 0.00 | 0.00 | 0.00 | 82 | 1006.5 |
| 20260506012009 | 26 | 142 | 4.8 | 8.0 | 0.00 | 0.00 | 0.00 | 81 | 1006.6 |
| 20260506011507 | 26 | 159 | 4.8 | 8.0 | 0.00 | 0.00 | 0.00 | 81 | 1006.5 |
| 20260506011006 | 26 | 175 | 3.2 | 6.4 | 0.00 | 0.00 | 0.00 | 81 | 1006.5 |
| 20260506010506 | 26 | 160 | 3.2 | 6.4 | 0.00 | 0.00 | 0.00 | 80 | 1006.5 |
| 20260506010004 | 26 | 159 | 3.2 | 6.4 | 0.00 | 0.00 | 0.00 | 80 | 1006.5 |
| 20260506005504 | 26 | 193 | 3.2 | 8.0 | 0.00 | 0.00 | 0.00 | 80 | 1006.5 |
| 20260506005003 | 26 | 206 | 3.2 | 11.3 | 0.00 | 0.00 | 0.00 | 79 | 1006.4 |
| 20260506004510 | 26 | 183 | 4.8 | 11.3 | 0.00 | 0.00 | 0.00 | 79 | 1006.3 |
| 20260506004004 | 27 | 189 | 4.8 | 9.7 | 0.00 | 0.00 | 0.00 | 79 | 1006.1 |
| 20260506003506 | 27 | 159 | 4.8 | 11.3 | 0.00 | 0.00 | 0.00 | 78 | 1006.1 |
| 20260506003016 | 27 | 160 | 4.8 | 12.9 | 0.00 | 0.00 | 0.00 | 78 | 1006.1 |
| 20260506002503 | 27 | 187 | 4.8 | 14.5 | 0.00 | 0.00 | 0.00 | 78 | 1006.1 |
| 20260506002005 | 27 | 178 | 6.4 | 14.5 | 0.00 | 0.00 | 0.00 | 78 | 1006.1 |
| 20260506001515 | 27 | 226 | 3.2 | 14.5 | 0.00 | 0.00 | 0.00 | 78 | 1006.0 |
| 20260506001010 | 27 | 205 | 8.0 | 14.5 | 0.00 | 0.00 | 0.00 | 78 | 1005.9 |
| 20260506000003 | 27 | 198 | 9.7 | 19.3 | 0.00 | 0.00 | 0.00 | 77 | 1005.8 |
| 20260505235504 | 27 | 142 | 8.0 | 19.3 | 0.00 | 0.00 | 0.00 | 76 | 1005.7 |
| 20260505235004 | 27 | 168 | 9.7 | 17.7 | 0.00 | 0.00 | 0.00 | 76 | 1005.7 |
| 20260505234525 | 27 | 158 | 6.4 | 20.9 | 0.00 | 0.00 | 0.00 | 77 | 1005.6 |
| 20260505234004 | 27 | 168 | 8.0 | 20.9 | 0.00 | 0.00 | 0.00 | 77 | 1005.6 |
| 20260505233503 | 27 | 172 | 8.0 | 17.7 | 0.00 | 0.00 | 0.00 | 76 | 1005.5 |
| 20260505233008 | 27 | 163 | 9.7 | 17.7 | 0.00 | 0.00 | 0.00 | 76 | 1005.5 |
| 20260505232508 | 27 | 146 | 8.0 | 14.5 | 0.00 | 0.00 | 0.00 | 76 | 1005.7 |
| 20260505232007 | 27 | 166 | 8.0 | 17.7 | 0.00 | 0.00 | 0.00 | 75 | 1005.7 |
| 20260505231503 | 27 | 169 | 9.7 | 17.7 | 0.00 | 0.00 | 0.00 | 74 | 1005.7 |
| 20260505231006 | 28 | 173 | 8.0 | 19.3 | 0.00 | 0.00 | 0.00 | 74 | 1005.6 |
| 20260505230506 | 28 | 196 | 8.0 | 19.3 | 0.00 | 0.00 | 0.00 | 74 | 1005.7 |
| 20260505230018 | 28 | 186 | 8.0 | 12.9 | 0.00 | 0.00 | 0.00 | 75 | 1005.8 |
| 20260505225008 | 28 | 192 | 8.0 | 19.3 | 0.00 | 0.00 | 0.00 | 74 | 1005.9 |
| 20260505224507 | 28 | 187 | 9.7 | 19.3 | 0.00 | 0.00 | 0.00 | 73 | 1005.9 |
| 20260505224004 | 28 | 173 | 8.0 | 24.1 | 0.00 | 0.00 | 0.00 | 74 | 1005.8 |
| 20260505223510 | 28 | 184 | 14.5 | 22.5 | 0.00 | 0.00 | 0.00 | 72 | 1005.9 |
| 20260505223011 | 28 | 167 | 9.7 | 24.1 | 0.00 | 0.00 | 0.00 | 73 | 1005.9 |
| 20260505222509 | 28 | 167 | 12.9 | 24.1 | 0.00 | 0.00 | 0.00 | 72 | 1005.9 |
| 20260505222008 | 28 | 164 | 12.9 | 24.1 | 0.00 | 0.00 | 0.00 | 74 | 1005.9 |
| 20260505221522 | 28 | 150 | 12.9 | 22.5 | 0.00 | 0.00 | 0.00 | 72 | 1006.0 |
| 20260505221016 | 28 | 202 | 14.5 | 22.5 | 0.00 | 0.00 | 0.00 | 72 | 1006.0 |
| 20260505220502 | 28 | 133 | 8.0 | 17.7 | 0.00 | 0.00 | 0.00 | 73 | 1006.0 |
| 20260505220015 | 28 | 204 | 9.7 | 17.7 | 0.00 | 0.00 | 0.00 | 73 | 1005.9 |
| 20260505215506 | 27 | 194 | 11.3 | 22.5 | 0.00 | 0.00 | 0.00 | 74 | 1006.1 |
| 20260505215011 | 27 | 171 | 9.7 | 22.5 | 0.00 | 0.00 | 0.00 | 74 | 1006.1 |
| 20260505214006 | 28 | 201 | 11.3 | 22.5 | 0.00 | 0.00 | 0.00 | 73 | 1006.3 |
| 20260505213503 | 28 | 148 | 12.9 | 32.2 | 0.00 | 0.00 | 0.00 | 70 | 1006.4 |
| 20260505213008 | 28 | 198 | 16.1 | 32.2 | 0.00 | 0.00 | 0.00 | 70 | 1006.3 |
| 20260505212510 | 28 | 179 | 14.5 | 27.4 | 0.00 | 0.00 | 0.00 | 73 | 1006.3 |
| 20260505212006 | 28 | 165 | 16.1 | 27.4 | 0.00 | 0.00 | 0.00 | 72 | 1006.2 |
| 20260505211515 | 27 | 214 | 12.9 | 27.4 | 0.00 | 0.00 | 0.00 | 74 | 1006.3 |
| 20260505211006 | 27 | 199 | 16.1 | 27.4 | 0.00 | 0.00 | 0.00 | 74 | 1006.5 |
| 20260505210508 | 27 | 194 | 16.1 | 24.1 | 0.00 | 0.00 | 0.00 | 73 | 1006.6 |
| 20260505210019 | 27 | 186 | 14.5 | 24.1 | 0.00 | 0.00 | 0.00 | 73 | 1006.6 |
| 20260505205503 | 27 | 175 | 11.3 | 29.0 | 0.00 | 0.00 | 0.00 | 74 | 1006.7 |
| 20260505205007 | 27 | 175 | 12.9 | 29.0 | 0.00 | 0.00 | 0.00 | 74 | 1006.7 |
| 20260505204521 | 27 | 155 | 17.7 | 25.7 | 0.00 | 0.00 | 0.00 | 73 | 1006.8 |
| 20260505204015 | 27 | 198 | 12.9 | 24.1 | 0.00 | 0.00 | 0.00 | 75 | 1006.8 |
| 20260505203031 | 27 | 172 | 12.9 | 20.9 | 0.00 | 0.00 | 0.00 | 75 | 1007.2 |
| 20260505202508 | 27 | 212 | 11.3 | 19.3 | 0.00 | 0.00 | 0.00 | 76 | 1007.3 |
| 20260505202007 | 27 | 218 | 11.3 | 22.5 | 0.00 | 0.00 | 0.00 | 77 | 1007.3 |
| 20260505201523 | 26 | 197 | 9.7 | 22.5 | 0.00 | 0.00 | 0.00 | 77 | 1007.4 |
| 20260505201007 | 26 | 178 | 9.7 | 20.9 | 0.00 | 0.00 | 0.00 | 77 | 1007.5 |
| 20260505200506 | 26 | 203 | 12.9 | 20.9 | 0.00 | 0.00 | 0.00 | 77 | 1007.5 |
| 20260505200012 | 26 | 201 | 11.3 | 17.7 | 0.00 | 0.00 | 0.00 | 78 | 1007.6 |
| 20260505195511 | 26 | 231 | 11.3 | 20.9 | 0.00 | 0.00 | 0.00 | 77 | 1007.7 |
| 20260505195011 | 26 | 200 | 11.3 | 20.9 | 0.00 | 0.00 | 0.00 | 78 | 1007.7 |
| 20260505194522 | 26 | 194 | 9.7 | 19.3 | 0.00 | 0.00 | 0.00 | 78 | 1007.8 |
| 20260505194007 | 26 | 204 | 12.9 | 22.5 | 0.00 | 0.00 | 0.00 | 76 | 1007.9 |
| 20260505193508 | 26 | 172 | 11.3 | 22.5 | 0.00 | 0.00 | 0.00 | 78 | 1007.9 |
| 20260505193025 | 26 | 203 | 9.7 | 25.7 | 0.00 | 0.00 | 0.00 | 79 | 1008.1 |
| 20260505192009 | 26 | 189 | 17.7 | 24.1 | 0.00 | 0.00 | 0.00 | 77 | 1008.0 |
| 20260505191511 | 26 | 207 | 12.9 | 22.5 | 0.00 | 0.00 | 0.00 | 78 | 1008.1 |
| 20260505191010 | 26 | 227 | 11.3 | 22.5 | 0.00 | 0.00 | 0.00 | 79 | 1008.0 |
| 20260505190509 | 26 | 220 | 9.7 | 22.5 | 0.00 | 0.00 | 0.00 | 79 | 1008.1 |
| 20260505190015 | 26 | 227 | 14.5 | 22.5 | 0.00 | 0.00 | 0.00 | 79 | 1008.2 |
| 20260505185513 | 26 | 202 | 14.5 | 27.4 | 0.00 | 0.00 | 0.00 | 79 | 1008.2 |
| 20260505185008 | 26 | 223 | 14.5 | 27.4 | 0.00 | 0.00 | 0.00 | 79 | 1008.2 |
| 20260505184516 | 26 | 248 | 12.9 | 27.4 | 0.00 | 0.00 | 0.00 | 79 | 1008.2 |
| 20260505184006 | 25 | 215 | 17.7 | 27.4 | 0.00 | 0.00 | 0.00 | 79 | 1008.2 |
| 20260505183508 | 26 | 207 | 14.5 | 27.4 | 0.00 | 0.00 | 0.00 | 80 | 1008.2 |
| 20260505183018 | 25 | 209 | 14.5 | 27.4 | 0.00 | 0.00 | 0.00 | 82 | 1008.2 |
| 20260505182512 | 25 | 211 | 14.5 | 32.2 | 0.00 | 0.00 | 0.00 | 81 | 1008.2 |
| 20260505182012 | 25 | 219 | 16.1 | 32.2 | 0.00 | 0.00 | 0.00 | 81 | 1008.3 |
| 20260505181008 | 25 | 182 | 17.7 | 29.0 | 0.00 | 0.00 | 0.00 | 82 | 1008.5 |
| 20260505180508 | 25 | 221 | 16.1 | 25.7 | 0.00 | 0.00 | 0.00 | 81 | 1008.5 |
| 20260505180020 | 25 | 200 | 12.9 | 24.1 | 0.00 | 0.00 | 0.00 | 82 | 1008.5 |
| 20260505175508 | 24 | 191 | 14.5 | 24.1 | 0.00 | 0.00 | 0.00 | 82 | 1008.6 |
| 20260505175011 | 24 | 190 | 12.9 | 24.1 | 0.00 | 0.00 | 0.00 | 84 | 1008.6 |
| 20260505174535 | 24 | 180 | 9.7 | 22.5 | 0.00 | 0.00 | 0.00 | 84 | 1008.7 |
| 20260505174008 | 24 | 221 | 11.3 | 22.5 | 0.00 | 0.00 | 0.00 | 84 | 1008.8 |
| 20260505173508 | 24 | 207 | 11.3 | 19.3 | 0.00 | 0.00 | 0.00 | 84 | 1008.9 |
| 20260505173028 | 23 | 224 | 12.9 | 27.4 | 0.00 | 0.00 | 0.00 | 84 | 1008.8 |
| 20260505172507 | 23 | 216 | 12.9 | 27.4 | 0.00 | 0.00 | 0.00 | 84 | 1008.8 |
| 20260505172008 | 23 | 207 | 14.5 | 27.4 | 0.00 | 0.00 | 0.00 | 84 | 1008.8 |
| 20260505171524 | 23 | 215 | 12.9 | 25.7 | 0.00 | 0.00 | 0.00 | 84 | 1008.9 |
| 20260505171011 | 23 | 217 | 12.9 | 25.7 | 0.00 | 0.00 | 0.00 | 84 | 1008.9 |
| 20260505170019 | 23 | 173 | 14.5 | 27.4 | 0.00 | 0.00 | 0.00 | 85 | 1009.0 |
| 20260505165513 | 23 | 191 | 16.1 | 25.7 | 0.00 | 0.00 | 0.00 | 85 | 1009.1 |
| 20260505165008 | 23 | 233 | 12.9 | 24.1 | 0.00 | 0.00 | 0.00 | 86 | 1009.1 |
| 20260505164512 | 23 | 209 | 16.1 | 24.1 | 0.00 | 0.00 | 0.00 | 86 | 1009.2 |
| 20260505164007 | 23 | 209 | 11.3 | 24.1 | 0.00 | 0.00 | 0.00 | 86 | 1009.1 |
| 20260505163507 | 23 | 222 | 16.1 | 20.9 | 0.00 | 0.00 | 0.00 | 86 | 1009.1 |
| 20260505163003 | 23 | 197 | 12.9 | 24.1 | 0.00 | 0.00 | 0.00 | 86 | 1009.0 |
| 20260505162504 | 23 | 194 | 16.1 | 27.4 | 0.00 | 0.00 | 0.00 | 86 | 1009.0 |
| 20260505162003 | 23 | 228 | 17.7 | 30.6 | 0.00 | 0.00 | 0.00 | 86 | 1009.0 |
| 20260505161506 | 23 | 205 | 17.7 | 30.6 | 0.00 | 0.00 | 0.00 | 86 | 1009.0 |
| 20260505161004 | 23 | 207 | 16.1 | 24.1 | 0.00 | 0.00 | 0.00 | 1009.0 | |
| 20260505160504 | 23 | 216 | 14.5 | 24.1 | 0.00 | 0.00 | 0.00 | 86 | 1008.9 |